Location: Bégole
(43.1574°N, 0.3291°E)
Time: 13:50:31
(UTC+00:00)

Cosmos 1455 Rocket - Pass Details

Date: 28 January 2023
Orbit: 603 x 628 km, 82.5° (Epoch: 19 March)

Event Time Altitude Azimuth Distance (km) Brightness Sun altitude
Rises 17:33:51 0° 352° (N) 2,892 6.4 -5.7°
Reaches altitude 10° 17:36:05 10° 353° (N) 1,979 5.5 -6.1°
Maximum altitude 17:40:29 86° 80° (E) 617 3.0 -6.8°
Drops below altitude 10° 17:44:48 10° 172° (S) 1,949 5.7 -7.6°
Sets 17:46:59 0° 172° (S) 2,845 6.6 -8.0°
